| time (UTC) | temp F | wind direction | speed knots | gust knots | rain 1hr in | rain 24hr in | rain mn in | humidity % | barometer mb |
| 20260504160405 | 51 | 320 | 2.6 | 4.3 | 0.00 | 0.28 | 0.27 | 89 | 1018.8 |
| 20260504150905 | 52 | 306 | 4.3 | 7.0 | 0.00 | 0.28 | 0.27 | 89 | 1018.4 |
| 20260504150405 | 52 | 308 | 4.3 | 7.0 | 0.00 | 0.28 | 0.27 | 89 | 1018.4 |
| 20260504140905 | 52 | 316 | 4.3 | 6.1 | 0.00 | 0.28 | 0.27 | 89 | 1018.2 |
| 20260504140405 | 52 | 320 | 4.3 | 7.0 | 0.00 | 0.28 | 0.27 | 89 | 1018.2 |
| 20260504130405 | 51 | 316 | 2.6 | 4.3 | 0.00 | 0.28 | 0.27 | 88 | 1018.0 |
| 20260504110405 | 52 | 320 | 5.2 | 7.8 | 0.00 | 0.28 | 0.27 | 87 | 1016.7 |
| 20260504100405 | 54 | 307 | 2.6 | 6.1 | 0.00 | 0.28 | 0.27 | 85 | 1016.0 |
| 20260504081905 | 56 | 273 | 5.2 | 11.3 | 0.01 | 0.28 | 0.27 | 86 | 1014.4 |
| 20260504081405 | 56 | 279 | 5.2 | 10.4 | 0.02 | 0.28 | 0.27 | 86 | 1014.2 |
| 20260504080905 | 56 | 282 | 6.1 | 10.4 | 0.03 | 0.28 | 0.27 | 86 | 1014.1 |
| 20260504080404 | 56 | 282 | 6.1 | 10.4 | 0.04 | 0.28 | 0.27 | 86 | 1014.1 |
| 20260504070405 | 59 | 237 | 7.0 | 13.9 | 0.02 | 0.24 | 0.23 | 85 | 1013.5 |
| 20260504050405 | 61 | 275 | 10.4 | 17.4 | 0.00 | 0.11 | 0.10 | 79 | 1011.5 |
| 20260504045905 | 62 | 288 | 13.0 | 20.0 | 0.00 | 0.11 | 0.10 | 79 | 1011.4 |
| 20260504045404 | 62 | 275 | 12.2 | 21.7 | 0.00 | 0.11 | 0.10 | 80 | 1011.4 |
| 20260504044905 | 61 | 285 | 8.7 | 13.0 | 0.00 | 0.11 | 0.10 | 81 | 1011.2 |
| 20260504044405 | 60 | 289 | 10.4 | 15.6 | 0.00 | 0.11 | 0.10 | 81 | 1011.2 |
| 20260504043904 | 59 | 282 | 10.4 | 15.6 | 0.00 | 0.11 | 0.10 | 81 | 1011.2 |
| 20260504043404 | 59 | 279 | 8.7 | 15.6 | 0.00 | 0.11 | 0.10 | 81 | 1011.2 |
| 20260504042905 | 59 | 284 | 14.8 | 24.3 | 0.00 | 0.11 | 0.10 | 79 | 1011.1 |
| 20260504042404 | 61 | 280 | 13.0 | 20.0 | 0.00 | 0.11 | 0.10 | 78 | 1011.1 |
| 20260504041904 | 61 | 264 | 10.4 | 15.6 | 0.00 | 0.11 | 0.10 | 77 | 1010.9 |
| 20260504041405 | 61 | 276 | 11.3 | 22.6 | 0.00 | 0.11 | 0.10 | 77 | 1010.8 |
| 20260504040905 | 63 | 266 | 13.9 | 25.2 | 0.00 | 0.11 | 0.10 | 73 | 1010.8 |
| 20260504040404 | 64 | 283 | 17.4 | 22.6 | 0.00 | 0.11 | 0.10 | 72 | 1010.4 |
| 20260504035905 | 65 | 285 | 13.0 | 22.6 | 0.00 | 0.11 | 0.10 | 72 | 1010.4 |
| 20260504035404 | 64 | 291 | 11.3 | 18.2 | 0.00 | 0.11 | 0.10 | 73 | 1010.3 |
| 20260504034904 | 64 | 291 | 13.9 | 22.6 | 0.00 | 0.11 | 0.10 | 71 | 1010.4 |
| 20260504034405 | 64 | 295 | 14.8 | 22.6 | 0.00 | 0.11 | 0.10 | 71 | 1010.3 |
| 20260504033904 | 63 | 275 | 15.6 | 22.6 | 0.01 | 0.11 | 0.10 | 72 | 1010.3 |
| 20260504033405 | 63 | 287 | 18.2 | 22.6 | 0.01 | 0.11 | 0.10 | 74 | 1010.2 |
| 20260504032904 | 64 | 292 | 13.9 | 21.7 | 0.01 | 0.11 | 0.10 | 77 | 1010.2 |
| 20260504032405 | 63 | 288 | 15.6 | 22.6 | 0.01 | 0.11 | 0.10 | 76 | 1010.2 |
| 20260504031904 | 63 | 297 | 12.2 | 21.7 | 0.01 | 0.11 | 0.10 | 76 | 1010.3 |
| 20260504031404 | 62 | 287 | 13.9 | 21.7 | 0.01 | 0.11 | 0.10 | 78 | 1010.4 |
| 20260504030904 | 62 | 290 | 13.9 | 21.7 | 0.01 | 0.11 | 0.10 | 80 | 1010.4 |
| 20260504030404 | 62 | 292 | 11.3 | 20.9 | 0.01 | 0.11 | 0.10 | 82 | 1010.4 |
| 20260504025904 | 61 | 274 | 12.2 | 20.0 | 0.01 | 0.11 | 0.10 | 82 | 1010.5 |
| 20260504025404 | 60 | 277 | 12.2 | 18.2 | 0.01 | 0.11 | 0.10 | 84 | 1010.5 |
| 20260504024904 | 58 | 293 | 11.3 | 20.0 | 0.01 | 0.11 | 0.10 | 85 | 1010.6 |
| 20260504024404 | 59 | 296 | 11.3 | 18.2 | 0.01 | 0.11 | 0.10 | 84 | 1010.7 |
| 20260504023904 | 59 | 283 | 12.2 | 19.1 | 0.00 | 0.10 | 0.09 | 83 | 1010.8 |
| 20260504023405 | 60 | 277 | 13.9 | 19.1 | 0.00 | 0.10 | 0.09 | 82 | 1010.8 |
| 20260504022904 | 60 | 294 | 8.7 | 17.4 | 0.00 | 0.10 | 0.09 | 82 | 1010.8 |
| 20260504022404 | 59 | 287 | 10.4 | 14.8 | 0.00 | 0.10 | 0.09 | 81 | 1010.8 |
| 20260504021905 | 59 | 300 | 11.3 | 19.1 | 0.00 | 0.10 | 0.09 | 79 | 1010.8 |
| 20260504021405 | 61 | 303 | 10.4 | 20.0 | 0.02 | 0.10 | 0.09 | 84 | 1010.8 |
| 20260504020904 | 61 | 297 | 10.4 | 14.8 | 0.04 | 0.10 | 0.09 | 85 | 1010.6 |
| 20260504020404 | 60 | 298 | 9.6 | 17.4 | 0.06 | 0.10 | 0.09 | 86 | 1010.6 |
| 20260504015905 | 60 | 306 | 8.7 | 13.0 | 0.06 | 0.10 | 0.09 | 87 | 1010.6 |
| 20260504015405 | 59 | 320 | 7.0 | 11.3 | 0.06 | 0.10 | 0.09 | 87 | 1010.6 |
| 20260504014904 | 58 | 317 | 5.2 | 8.7 | 0.06 | 0.10 | 0.09 | 87 | 1010.6 |
| 20260504014404 | 57 | 321 | 6.1 | 8.7 | 0.06 | 0.10 | 0.09 | 87 | 1010.7 |
| 20260504013904 | 57 | 313 | 5.2 | 10.4 | 0.06 | 0.10 | 0.09 | 87 | 1010.7 |
| 20260504013404 | 57 | 308 | 7.8 | 11.3 | 0.06 | 0.10 | 0.09 | 86 | 1010.8 |
| 20260504012904 | 57 | 314 | 7.8 | 11.3 | 0.07 | 0.10 | 0.09 | 87 | 1010.7 |
| 20260504012405 | 57 | 314 | 10.4 | 13.9 | 0.07 | 0.10 | 0.09 | 87 | 1010.7 |
| 20260504011905 | 58 | 321 | 11.3 | 20.0 | 0.07 | 0.10 | 0.09 | 87 | 1010.6 |
| 20260504011404 | 59 | 311 | 10.4 | 20.9 | 0.06 | 0.09 | 0.08 | 86 | 1010.5 |
| 20260504010904 | 60 | 325 | 13.9 | 20.0 | 0.04 | 0.06 | 0.06 | 85 | 1010.4 |
| 20260504010404 | 60 | 341 | 8.7 | 12.2 | 0.02 | 0.04 | 0.03 | 87 | 1010.2 |
| 20260504005904 | 59 | 326 | 8.7 | 12.2 | 0.02 | 0.04 | 0.03 | 87 | 1010.3 |
| 20260504005405 | 59 | 335 | 10.4 | 15.6 | 0.03 | 0.04 | 0.03 | 87 | 1010.3 |
| 20260504004904 | 59 | 332 | 8.7 | 13.9 | 0.03 | 0.04 | 0.03 | 87 | 1010.3 |
| 20260504004405 | 59 | 327 | 9.6 | 13.9 | 0.03 | 0.04 | 0.03 | 87 | 1010.3 |
| 20260504003905 | 58 | 345 | 10.4 | 17.4 | 0.03 | 0.04 | 0.03 | 87 | 1010.3 |
| 20260504003404 | 58 | 333 | 11.3 | 14.8 | 0.03 | 0.04 | 0.03 | 87 | 1010.3 |
| 20260504002904 | 58 | 339 | 10.4 | 14.8 | 0.01 | 0.03 | 0.02 | 88 | 1010.3 |
| 20260504002404 | 57 | 326 | 7.8 | 13.0 | 0.01 | 0.03 | 0.02 | 88 | 1010.3 |
| 20260504001904 | 57 | 329 | 10.4 | 13.0 | 0.01 | 0.03 | 0.02 | 88 | 1010.3 |
| 20260504001404 | 57 | 324 | 7.8 | 10.4 | 0.01 | 0.03 | 0.02 | 88 | 1010.3 |
| 20260504000904 | 57 | 334 | 11.3 | 17.4 | 0.02 | 0.02 | 0.02 | 87 | 1010.2 |
| 20260504000404 | 57 | 329 | 8.7 | 13.9 | 0.01 | 0.02 | 0.01 | 87 | 1010.2 |
| 20260503235904 | 57 | 328 | 9.6 | 13.0 | 0.01 | 0.02 | 0.01 | 87 | 1010.2 |
| 20260503235404 | 57 | 327 | 8.7 | 13.9 | 0.00 | 0.01 | 0.00 | 87 | 1010.1 |
| 20260503234904 | 57 | 337 | 11.3 | 14.8 | 0.00 | 0.01 | 0.00 | 88 | 1010.1 |
| 20260503234405 | 56 | 334 | 9.6 | 15.6 | 0.01 | 0.01 | 0.00 | 87 | 1010.0 |
| 20260503233904 | 56 | 343 | 9.6 | 14.8 | 0.01 | 0.01 | 0.00 | 88 | 1010.0 |
| 20260503233404 | 56 | 338 | 7.8 | 13.0 | 0.01 | 0.02 | 0.00 | 88 | 1010.0 |
| 20260503232904 | 55 | 340 | 8.7 | 13.0 | 0.01 | 0.02 | 0.02 | 88 | 1009.9 |
| 20260503232404 | 55 | 347 | 7.8 | 12.2 | 0.01 | 0.02 | 0.02 | 88 | 1009.9 |
| 20260503231904 | 55 | 333 | 7.0 | 12.2 | 0.01 | 0.02 | 0.02 | 88 | 1009.9 |
| 20260503231404 | 54 | 339 | 10.4 | 17.4 | 0.01 | 0.02 | 0.02 | 88 | 1009.9 |
| 20260503230904 | 54 | 339 | 9.6 | 13.0 | 0.01 | 0.02 | 0.02 | 88 | 1009.9 |
| 20260503230404 | 54 | 339 | 8.7 | 12.2 | 0.01 | 0.02 | 0.02 | 88 | 1009.9 |
| 20260503225905 | 54 | 337 | 10.4 | 14.8 | 0.01 | 0.02 | 0.02 | 88 | 1009.8 |
| 20260503225404 | 54 | 353 | 7.8 | 13.0 | 0.01 | 0.02 | 0.02 | 88 | 1009.7 |
| 20260503224904 | 54 | 338 | 7.8 | 14.8 | 0.01 | 0.02 | 0.02 | 88 | 1009.7 |
| 20260503224404 | 54 | 350 | 7.0 | 12.2 | 0.00 | 0.01 | 0.01 | 87 | 1009.6 |
| 20260503223905 | 54 | 352 | 7.8 | 13.0 | 0.00 | 0.01 | 0.01 | 87 | 1009.6 |
| 20260503223403 | 54 | 343 | 8.7 | 14.8 | 0.00 | 0.01 | 0.01 | 87 | 1009.6 |
| 20260503222904 | 54 | 353 | 10.4 | 14.8 | 0.00 | 0.01 | 0.01 | 87 | 1009.5 |
| 20260503222404 | 54 | 352 | 7.8 | 11.3 | 0.00 | 0.01 | 0.01 | 87 | 1009.5 |
| 20260503221905 | 54 | 347 | 10.4 | 14.8 | 0.00 | 0.01 | 0.01 | 87 | 1009.4 |
| 20260503221404 | 53 | 355 | 10.4 | 14.8 | 0.00 | 0.01 | 0.01 | 87 | 1009.4 |
| 20260503220905 | 53 | 353 | 8.7 | 14.8 | 0.00 | 0.01 | 0.01 | 87 | 1009.4 |
| 20260503220404 | 53 | 344 | 7.8 | 13.9 | 0.00 | 0.01 | 0.01 | 87 | 1009.3 |
| 20260503215904 | 53 | 349 | 8.7 | 13.0 | 0.00 | 0.01 | 0.01 | 87 | 1009.1 |
| 20260503215404 | 53 | 350 | 8.7 | 13.0 | 0.00 | 0.01 | 0.01 | 87 | 1009.1 |
| 20260503214904 | 53 | 356 | 10.4 | 14.8 | 0.00 | 0.01 | 0.01 | 87 | 1009.1 |
| 20260503214404 | 53 | 354 | 10.4 | 15.6 | 0.00 | 0.01 | 0.01 | 87 | 1009.0 |
| 20260503213904 | 53 | 358 | 10.4 | 13.9 | 0.00 | 0.01 | 0.01 | 87 | 1009.1 |
| 20260503213404 | 54 | 355 | 8.7 | 13.9 | 0.00 | 0.01 | 0.01 | 86 | 1009.0 |
| 20260503212904 | 54 | 348 | 8.7 | 14.8 | 0.00 | 0.01 | 0.01 | 86 | 1009.0 |
| 20260503212404 | 54 | 350 | 7.8 | 13.0 | 0.00 | 0.01 | 0.01 | 86 | 1009.0 |
| 20260503211904 | 54 | 355 | 9.6 | 13.0 | 0.00 | 0.01 | 0.01 | 86 | 1008.8 |
| 20260503211404 | 54 | 344 | 8.7 | 14.8 | 0.00 | 0.01 | 0.01 | 86 | 1008.8 |
| 20260503210904 | 54 | 357 | 10.4 | 17.4 | 0.00 | 0.01 | 0.01 | 86 | 1008.7 |
| 20260503210404 | 54 | 352 | 9.6 | 13.9 | 0.00 | 0.01 | 0.01 | 86 | 1008.8 |